FW6992 Weather Reports


Display with metric or nautical units.
time (UTC)temp
F
wind
direction
speed
MPH
gust
MPH
rain 1hr
in
rain 24hr
in
rain mn
in
humidity
%
barometer
mb
20260902130257 86 233 0.0 0.0 0.00 0.00 0.00 62 1021.5
20260902125752 85 233 0.0 0.0 0.00 0.00 0.00 66 1021.5
20260902125248 84 238 0.0 0.0 0.00 0.00 0.00 72 1021.5
20260902124744 82 109 2.0 2.0 0.00 0.00 0.00 71 1021.5
20260902124239 81 318 0.0 0.0 0.00 0.00 0.00 73 1021.4
20260902123734 80 73 1.0 1.0 0.00 0.00 0.00 76 1021.5
20260902123231 79 233 0.0 1.0 0.00 0.00 0.00 75 1021.4
20260902122729 78 248 0.0 1.0 0.00 0.00 0.00 78 1021.5
20260902122225 77 163 0.0 0.0 0.00 0.00 0.00 81 1021.5
20260902121720 77 251 0.0 0.0 0.00 0.00 0.00 81 1021.3
20260902121215 76 163 0.0 1.0 0.00 0.00 0.00 81 1021.7
20260902120711 76 336 0.0 0.0 0.00 0.00 0.00 82 1021.5
20260902120207 75 221 0.0 0.0 0.00 0.00 0.00 83 1021.6
20260902115707 75 110 0.0 0.0 0.00 0.00 0.00 84 1021.6
20260902115203 75 156 0.0 0.0 0.00 0.00 0.00 85 1021.3
20260902114659 75 251 0.0 0.0 0.00 0.00 0.00 86 1021.6
20260902114154 75 264 0.0 1.0 0.00 0.00 0.00 87 1021.4
20260902113649 74 263 0.0 0.0 0.00 0.00 0.00 87 1021.4
20260902113143 74 263 0.0 1.0 0.00 0.00 0.00 87 1021.1
20260902112638 74 219 0.0 0.0 0.00 0.00 0.00 87 1021.4
20260902112136 74 123 0.0 2.0 0.00 0.00 0.00 86 1021.3
20260902111636 74 175 0.0 0.0 0.00 0.00 0.00 86 1021.4
20260902111132 74 53 0.0 0.0 0.00 0.00 0.00 86 1021.3
20260902110627 74 21 0.0 0.0 0.00 0.00 0.00 86 1021.2
20260902110124 74 226 0.0 0.0 0.00 0.00 0.00 87 1021.0
20260902105622 74 343 0.0 0.0 0.00 0.00 0.00 86 1021.1
20260902105118 74 314 0.0 1.0 0.00 0.00 0.00 85 1021.1
20260902104613 74 250 0.0 1.0 0.00 0.00 0.00 85 1021.3
20260902104109 75 256 0.0 0.0 0.00 0.00 0.00 84 1021.0
20260902103608 75 249 0.0 0.0 0.00 0.00 0.00 83 1021.1
20260902103104 75 65 0.0 1.0 0.00 0.00 0.00 83 1021.3
20260902102555 75 78 0.0 1.0 0.00 0.00 0.00 83 1021.1
20260902102051 75 162 0.0 0.0 0.00 0.00 0.00 83 1020.9
20260902101547 75 283 1.0 2.0 0.00 0.00 0.00 83 1020.9
20260902101046 75 143 1.0 2.0 0.00 0.00 0.00 82 1020.8
20260902100546 75 101 1.0 2.0 0.00 0.00 0.00 81 1020.9
20260902100041 75 336 0.0 0.0 0.00 0.00 0.00 82 1020.7
20260902095539 75 310 0.0 2.0 0.00 0.00 0.00 83 1020.6
20260902095038 75 178 0.0 1.0 0.00 0.00 0.00 82 1020.6
20260902094534 75 313 0.0 0.0 0.00 0.00 0.00 84 1020.7
20260902094030 75 156 0.0 1.0 0.00 0.00 0.00 84 1020.6
20260902093525 75 6 0.0 1.0 0.00 0.00 0.00 85 1020.5
20260902093024 75 31 0.0 0.0 0.00 0.00 0.00 85 1020.8
20260902092520 75 198 0.0 1.0 0.00 0.00 0.00 84 1020.8
20260902092014 75 263 0.0 1.0 0.00 0.00 0.00 83 1020.6
20260902091510 75 284 0.0 0.0 0.00 0.00 0.00 84 1020.5
20260902091006 75 151 0.0 1.0 0.00 0.00 0.00 83 1020.7
20260902090501 75 314 0.0 1.0 0.00 0.00 0.00 83 1020.7
20260902090000 75 20 0.0 0.0 0.00 0.00 0.00 83 1020.7
20260902085455 75 305 0.0 0.0 0.00 0.00 0.00 83 1020.6
20260902084950 75 245 0.0 1.0 0.00 0.00 0.00 83 1020.5
20260902084447 75 214 0.0 0.0 0.00 0.00 0.00 83 1020.5
20260902083942 75 175 0.0 2.0 0.00 0.00 0.00 83 1020.6
20260902083441 75 256 0.0 0.0 0.00 0.00 0.00 83 1020.7
20260902082936 75 334 1.0 2.0 0.00 0.00 0.00 83 1020.6
20260902082432 75 3 0.0 0.0 0.00 0.00 0.00 82 1020.5
20260902081929 76 264 0.0 1.0 0.00 0.00 0.00 82 1020.5
20260902081425 76 185 0.0 0.0 0.00 0.00 0.00 81 1020.6
20260902080920 76 211 1.0 1.0 0.00 0.00 0.00 81 1020.4
20260902080416 76 318 0.0 1.0 0.00 0.00 0.00 80 1020.5
20260902075915 76 223 0.0 0.0 0.00 0.00 0.00 80 1020.5
20260902075412 76 220 0.0 0.0 0.00 0.00 0.00 80 1020.6
20260902074907 76 230 0.0 0.0 0.00 0.00 0.00 78 1020.4
20260902074403 76 230 0.0 0.0 0.00 0.00 0.00 78 1020.4
20260902073857 76 194 0.0 0.0 0.00 0.00 0.00 79 1020.3
20260902073353 76 194 0.0 0.0 0.00 0.00 0.00 79 1020.3
20260902072849 76 194 0.0 0.0 0.00 0.00 0.00 79 1020.6
20260902072344 76 194 0.0 0.0 0.00 0.00 0.00 78 1020.6
20260902071841 76 194 0.0 0.0 0.00 0.00 0.00 80 1020.4
20260902071340 76 194 0.0 0.0 0.00 0.00 0.00 81 1020.5
20260902070838 76 194 0.0 0.0 0.00 0.00 0.00 83 1020.6
20260902070338 76 330 0.0 0.0 0.00 0.00 0.00 85 1020.5
20260902065836 76 46 0.0 0.0 0.00 0.00 0.00 85 1020.4
20260902065332 76 251 0.0 0.0 0.00 0.00 0.00 85 1020.7
20260902064827 76 251 0.0 0.0 0.00 0.00 0.00 84 1020.7
20260902064323 76 132 0.0 0.0 0.00 0.00 0.00 83 1020.6
20260902063818 76 178 0.0 1.0 0.00 0.00 0.00 83 1020.5
20260902063312 76 354 0.0 0.0 0.00 0.00 0.00 80 1020.6
20260902062807 77 330 0.0 0.0 0.00 0.00 0.00 79 1020.6
20260902062305 77 245 0.0 0.0 0.00 0.00 0.00 79 1020.7
20260902061802 77 245 0.0 0.0 0.00 0.00 0.00 79 1020.5
20260902061256 77 245 0.0 0.0 0.00 0.00 0.00 79 1020.8
20260902060754 77 245 0.0 0.0 0.00 0.00 0.00 79 1020.8
20260902060248 77 245 0.0 0.0 0.00 0.00 0.00 79 1020.9
20260902055743 77 305 0.0 0.0 0.00 0.00 0.00 78 1020.9
20260902055241 77 305 0.0 0.0 0.00 0.00 0.00 78 1020.8
20260902054741 77 305 0.0 0.0 0.00 0.00 0.00 78 1020.6
20260902054236 78 305 0.0 0.0 0.00 0.00 0.00 78 1021.0
20260902053732 78 138 0.0 0.0 0.00 0.00 0.00 77 1020.9
20260902053231 78 150 0.0 0.0 0.00 0.00 0.00 79 1020.7
20260902052730 78 171 0.0 0.0 0.00 0.00 0.00 77 1020.7
20260902052226 78 251 0.0 0.0 0.00 0.00 0.00 77 1020.8
20260902051725 78 251 0.0 0.0 0.00 0.00 0.00 76 1020.7
20260902051220 78 251 0.0 0.0 0.00 0.00 0.00 76 1020.9
20260902050715 78 251 0.0 0.0 0.00 0.00 0.00 76 1020.7
20260902050210 77 251 0.0 0.0 0.00 0.00 0.00 77 1020.7
20260902045710 77 251 0.0 0.0 0.00 0.00 0.00 79 1020.6
20260902045207 77 251 0.0 0.0 0.00 0.00 0.00 80 1020.5
20260902044701 77 251 0.0 0.0 0.00 0.00 0.00 82 1020.6
20260902044158 77 251 0.0 0.0 0.00 0.00 0.00 83 1020.4
20260902043652 77 330 0.0 0.0 0.00 0.00 0.00 83 1020.3
20260902043148 77 270 0.0 0.0 0.00 0.00 0.00 82 1020.3
20260902042647 78 274 0.0 1.0 0.00 0.00 0.00 82 1020.3
20260902042142 78 83 0.0 0.0 0.00 0.00 0.00 82 1020.1
20260902041642 78 357 0.0 0.0 0.00 0.00 0.00 82 1020.2
20260902041137 78 357 0.0 0.0 0.00 0.00 0.00 81 1020.0
20260902040636 78 357 0.0 1.0 0.00 0.00 0.00 83 1020.0
20260902040132 78 251 0.0 0.0 0.00 0.00 0.00 83 1020.0
20260902035630 77 354 0.0 0.0 0.00 0.00 0.00 84 1020.0
20260902035126 77 343 0.0 0.0 0.00 0.00 0.00 84 1019.8
20260902034625 78 250 0.0 0.0 0.00 0.00 0.00 84 1019.8
20260902034125 78 305 0.0 0.0 0.00 0.00 0.00 83 1019.7
20260902033624 78 305 0.0 0.0 0.00 0.00 0.00 83 1019.7
20260902033119 78 318 0.0 0.0 0.00 0.00 0.00 82 1019.6
20260902032618 78 138 0.0 0.0 0.00 0.00 0.00 82 1019.5
20260902032112 78 138 0.0 0.0 0.00 0.00 0.00 81 1019.6
20260902031606 78 251 0.0 0.0 0.00 0.00 0.00 80 1019.4
20260902031103 78 164 0.0 0.0 0.00 0.00 0.00 79 1019.7
20260902030603 78 138 0.0 0.0 0.00 0.00 0.00 79 1019.6
20260902030057 79 138 0.0 0.0 0.00 0.00 0.00 80 1019.7
20260902025557 79 138 0.0 0.0 0.00 0.00 0.00 80 1019.6
20260902025053 79 138 0.0 0.0 0.00 0.00 0.00 80 1019.5
20260902024549 79 138 0.0 0.0 0.00 0.00 0.00 80 1019.7
20260902024048 79 138 0.0 0.0 0.00 0.00 0.00 80 1019.7
20260902023544 79 138 0.0 0.0 0.00 0.00 0.00 80 1019.9
20260902023039 80 138 0.0 0.0 0.00 0.00 0.00 79 1019.7
20260902022533 80 138 0.0 0.0 0.00 0.00 0.00 79 1020.0
20260902022029 80 138 0.0 0.0 0.00 0.00 0.00 79 1019.6
20260902021524 80 138 0.0 0.0 0.00 0.00 0.00 78 1019.8
20260902021019 80 263 0.0 0.0 0.00 0.00 0.00 78 1019.9
20260902020515 80 263 0.0 0.0 0.00 0.00 0.00 78 1019.8
20260902020011 80 263 0.0 0.0 0.00 0.00 0.00 78 1019.7
20260902015506 80 263 0.0 0.0 0.00 0.00 0.00 77 1019.4
20260902015007 80 263 0.0 0.0 0.00 0.00 0.00 77 1019.4
20260902014503 81 263 0.0 0.0 0.00 0.00 0.00 76 1019.6
20260902013958 81 263 0.0 0.0 0.00 0.00 0.00 75 1019.2
20260902013453 81 263 0.0 0.0 0.00 0.00 0.00 75 1019.3
20260902012948 81 263 0.0 0.0 0.00 0.00 0.00 74 1019.1
20260902012443 81 263 0.0 0.0 0.00 0.00 0.00 74 1019.0
20260902011939 81 263 0.0 0.0 0.00 0.00 0.00 74 1019.0
20260902011434 82 263 0.0 0.0 0.00 0.00 0.00 73 1019.0
20260902010933 82 263 0.0 0.0 0.00 0.00 0.00 73 1019.1
20260902010428 82 263 0.0 0.0 0.00 0.00 0.00 73 1019.0
20260902005928 82 263 0.0 0.0 0.00 0.00 0.00 73 1018.9
20260902005427 82 263 0.0 0.0 0.00 0.00 0.00 72 1018.7
20260902004923 82 263 0.0 0.0 0.00 0.00 0.00 72 1018.6
20260902004423 82 267 0.0 0.0 0.00 0.00 0.00 71 1018.7
20260902003918 82 267 0.0 0.0 0.00 0.00 0.00 70 1018.6
20260902003413 82 267 0.0 0.0 0.00 0.00 0.00 70 1018.5
20260902002908 83 267 0.0 0.0 0.00 0.00 0.00 69 1018.3
20260902002403 83 267 0.0 0.0 0.00 0.00 0.00 69 1018.3
20260902001858 83 314 0.0 0.0 0.00 0.00 0.00 68 1018.3
20260902001353 83 314 0.0 0.0 0.00 0.00 0.00 68 1018.5
20260902000848 84 314 0.0 0.0 0.00 0.00 0.00 68 1018.3
20260902000348 84 226 0.0 0.0 0.00 0.00 0.00 68 1018.5
20260901235843 84 226 0.0 0.0 0.00 0.00 0.00 68 1018.2
20260901235342 84 226 0.0 0.0 0.00 0.00 0.00 68 1018.3
20260901234838 85 251 0.0 0.0 0.00 0.00 0.00 67 1018.4
20260901234331 85 251 0.0 0.0 0.00 0.00 0.00 66 1018.4
20260901233827 85 251 0.0 0.0 0.00 0.00 0.00 65 1018.5
20260901233322 86 251 0.0 0.0 0.00 0.00 0.00 64 1018.4
20260901232818 86 251 0.0 0.0 0.00 0.00 0.00 64 1018.6
20260901232312 86 251 0.0 0.0 0.00 0.00 0.00 64 1018.6
20260901231809 86 251 0.0 0.0 0.00 0.00 0.00 63 1018.8
20260901231305 86 53 0.0 0.0 0.00 0.00 0.00 64 1018.8
20260901230801 87 290 0.0 0.0 0.00 0.00 0.00 64 1018.6
20260901230300 87 245 0.0 0.0 0.00 0.00 0.00 63 1018.6
20260901225756 87 245 0.0 0.0 0.00 0.00 0.00 62 1018.6
20260901225250 87 226 0.0 0.0 0.00 0.00 0.00 62 1018.7
20260901224746 87 245 0.0 0.0 0.00 0.00 0.00 62 1018.6
20260901224242 88 245 0.0 0.0 0.00 0.00 0.00 60 1018.6
20260901223738 88 245 0.0 0.0 0.00 0.00 0.00 60 1018.6
20260901223238 88 223 0.0 1.0 0.00 0.00 0.00 59 1018.6
20260901222734 89 216 0.0 0.0 0.00 0.00 0.00 58 1018.5
20260901222230 89 216 0.0 0.0 0.00 0.00 0.00 57 1018.6
20260901221726 89 216 0.0 0.0 0.00 0.00 0.00 56 1018.6
20260901221221 89 127 0.0 1.0 0.00 0.00 0.00 56 1018.5
20260901220720 89 337 0.0 2.0 0.00 0.00 0.00 56 1018.3
20260901220215 90 230 0.0 1.0 0.00 0.00 0.00 55 1018.6
20260901215714 90 140 0.0 1.0 0.00 0.00 0.00 55 1018.6
20260901215214 90 263 0.0 0.0 0.00 0.00 0.00 51 1018.6
20260901214712 91 145 0.0 2.0 0.00 0.00 0.00 51 1019.1
20260901214206 91 326 1.0 1.0 0.00 0.00 0.00 53 1019.1
20260901213700 92 143 0.0 1.0 0.00 0.00 0.00 52 1019.0
20260901213155 92 305 0.0 5.0 0.00 0.00 0.00 50 1019.0
20260901212655 93 323 2.0 2.0 0.00 0.00 0.00 47 1018.9
20260901212151 93 318 0.0 0.0 0.00 0.00 0.00 49 1018.9
20260901211645 93 226 0.0 1.0 0.00 0.00 0.00 50 1018.8
20260901211142 94 192 0.0 0.0 0.00 0.00 0.00 48 1018.7
20260901210637 94 206 0.0 0.0 0.00 0.00 0.00 44 1018.8
20260901210133 95 223 0.0 3.0 0.00 0.00 0.00 49 1018.8
20260901205629 95 305 0.0 2.0 0.00 0.00 0.00 44 1018.8
20260901205128 97 5 2.0 2.0 0.00 0.00 0.00 41 1019.0
20260901204624 97 211 0.0 2.0 0.00 0.00 0.00 39 1019.0
20260901204119 98 71 0.0 0.0 0.00 0.00 0.00 37 1018.9
20260901203614 98 58 0.0 0.0 0.00 0.00 0.00 40 1019.0
20260901203109 97 290 1.0 2.0 0.00 0.00 0.00 42 1019.0
20260901202608 96 321 2.0 2.0 0.00 0.00 0.00 42 1019.2
20260901202105 95 343 0.0 1.0 0.00 0.00 0.00 46 1018.9
20260901201600 95 58 0.0 1.0 0.00 0.00 0.00 48 1019.3
20260901201059 97 93 0.0 1.0 0.00 0.00 0.00 41 1019.6
20260901200559 97 220 0.0 1.0 0.00 0.00 0.00 42 1019.3
20260901200054 98 85 0.0 2.0 0.00 0.00 0.00 39 1019.1
20260901195552 98 350 1.0 2.0 0.00 0.00 0.00 39 1019.3
20260901195051 97 216 0.0 2.0 0.00 0.00 0.00 39 1019.4
20260901194552 97 207 0.0 0.0 0.00 0.00 0.00 43 1019.4
20260901194048 97 240 0.0 0.0 0.00 0.00 0.00 44 1019.5
20260901193543 97 201 0.0 1.0 0.00 0.00 0.00 40 1019.5
20260901193038 96 138 0.0 2.0 0.00 0.00 0.00 41 1019.4
20260901192532 97 226 1.0 3.0 0.00 0.00 0.00 41 1019.7
20260901192028 98 251 0.0 1.0 0.00 0.00 0.00 40 1019.7
20260901191524 98 336 0.0 1.0 0.00 0.00 0.00 44 1019.8
20260901191020 96 279 1.0 2.0 0.00 0.00 0.00 45 1019.9
20260901190514 94 290 0.0 2.0 0.00 0.00 0.00 45 1019.9
20260901190014 93 201 0.0 2.0 0.00 0.00 0.00 48 1020.1
20260901185507 94 220 0.0 1.0 0.00 0.00 0.00 49 1020.0
20260901185006 95 270 0.0 0.0 0.00 0.00 0.00 44 1019.9
20260901184502 95 70 0.0 1.0 0.00 0.00 0.00 47 1020.1
20260901183957 96 216 1.0 2.0 0.00 0.00 0.00 42 1020.1
20260901183457 95 279 0.0 1.0 0.00 0.00 0.00 46 1020.2
20260901182952 95 343 0.0 0.0 0.00 0.00 0.00 48 1020.2
20260901182448 95 205 0.0 2.0 0.00 0.00 0.00 45 1020.1
20260901181943 94 106 1.0 2.0 0.00 0.00 0.00 46 1020.0
20260901181443 93 226 0.0 2.0 0.00 0.00 0.00 51 1020.2
20260901180942 93 190 1.0 2.0 0.00 0.00 0.00 50 1020.1
20260901180441 94 145 0.0 2.0 0.00 0.00 0.00 47 1020.1
20260901175939 95 245 0.0 2.0 0.00 0.00 0.00 50 1020.0
20260901175435 94 96 0.0 1.0 0.00 0.00 0.00 48 1020.1
20260901174930 94 96 0.0 2.0 0.00 0.00 0.00 47 1020.1
20260901174425 95 65 0.0 1.0 0.00 0.00 0.00 47 1020.1
20260901173921 95 211 1.0 2.0 0.00 0.00 0.00 46 1020.2
20260901173410 94 211 3.0 4.0 0.00 0.00 0.00 47 1020.4
20260901172906 94 54 0.0 2.0 0.00 0.00 0.00 47 1020.3
20260901172401 94 10 0.0 1.0 0.00 0.00 0.00 47 1020.4
20260901171900 94 18 0.0 1.0 0.00 0.00 0.00 48 1020.1
20260901171358 94 245 0.0 2.0 0.00 0.00 0.00 50 1020.2
20260901170857 93 73 1.0 1.0 0.00 0.00 0.00 47 1020.1
20260901170352 92 284 0.0 2.0 0.00 0.00 0.00 50 1020.2
20260901165852 92 228 3.0 3.0 0.00 0.00 0.00 49 1020.0
20260901165351 91 258 1.0 2.0 0.00 0.00 0.00 54 1020.2
20260901164848 91 151 1.0 2.0 0.00 0.00 0.00 51 1020.4
20260901164344 91 127 0.0 2.0 0.00 0.00 0.00 50 1020.5
20260901163843 91 58 1.0 2.0 0.00 0.00 0.00 51 1020.4
20260901163338 90 97 0.0 1.0 0.00 0.00 0.00 53 1020.5
20260901162828 90 223 0.0 2.0 0.00 0.00 0.00 51 1020.5
20260901162326 90 2 1.0 2.0 0.00 0.00 0.00 54 1020.5
20260901161826 90 260 1.0 1.0 0.00 0.00 0.00 55 1020.7
20260901161321 90 245 0.0 2.0 0.00 0.00 0.00 57 1020.7
20260901160816 90 235 0.0 2.0 0.00 0.00 0.00 59 1020.9
20260901160313 90 156 0.0 2.0 0.00 0.00 0.00 55 1020.9
20260901155811 89 87 0.0 1.0 0.00 0.00 0.00 58 1020.9
20260901155306 90 163 0.0 3.0 0.00 0.00 0.00 53 1020.9
20260901154802 90 14 0.0 0.0 0.00 0.00 0.00 55 1021.1
20260901154256 90 137 1.0 1.0 0.00 0.00 0.00 54 1021.2
20260901153751 91 8 0.0 2.0 0.00 0.00 0.00 58 1020.9
20260901153250 89 215 1.0 2.0 0.00 0.00 0.00 57 1021.1
20260901152749 89 215 1.0 2.0 0.00 0.00 0.00 57 1021.3
20260901152249 89 215 1.0 2.0 0.00 0.00 0.00 57 1021.4
20260901151744 89 215 1.0 2.0 0.00 0.00 0.00 57 1021.3
20260901151244 88 65 0.0 0.0 0.00 0.00 0.00 61 1021.4
20260901150743 87 65 0.0 0.0 0.00 0.00 0.00 64 1021.4
20260901150242 86 245 0.0 0.0 0.00 0.00 0.00 65 1021.7
20260901145740 84 270 0.0 1.0 0.00 0.00 0.00 68 1021.4
20260901145240 83 251 0.0 0.0 0.00 0.00 0.00 74 1021.4
20260901144735 83 36 0.0 0.0 0.00 0.00 0.00 72 1021.8
20260901144230 83 71 0.0 0.0 0.00 0.00 0.00 70 1021.6
20260901143726 83 330 0.0 1.0 0.00 0.00 0.00 72 1021.7
20260901143222 83 290 0.0 1.0 0.00 0.00 0.00 75 1021.3
20260901142718 82 330 0.0 0.0 0.00 0.00 0.00 79 1021.5
20260901142217 82 354 0.0 0.0 0.00 0.00 0.00 77 1021.4
20260901141713 82 251 0.0 0.0 0.00 0.00 0.00 80 1021.3
20260901141207 82 233 0.0 0.0 0.00 0.00 0.00 79 1021.3
20260901140706 82 238 0.0 0.0 0.00 0.00 0.00 80 1021.1
20260901140205 82 238 0.0 0.0 0.00 0.00 0.00 76 1021.5
20260901135700 81 207 0.0 0.0 0.00 0.00 0.00 75 1021.6
20260901135159 81 233 0.0 2.0 0.00 0.00 0.00 75 1021.4
20260901134655 80 226 0.0 0.0 0.00 0.00 0.00 78 1021.5
20260901134150 80 238 0.0 1.0 0.00 0.00 0.00 79 1021.6
20260901133650 80 46 0.0 0.0 0.00 0.00 0.00 82 1021.5
20260901133148 79 238 0.0 0.0 0.00 0.00 0.00 83 1021.6
20260901132643 80 131 0.0 0.0 0.00 0.00 0.00 83 1021.7
20260901132143 80 131 0.0 2.0 0.00 0.00 0.00 85 1021.6
20260901131643 79 318 0.0 0.0 0.00 0.00 0.00 89 1021.6
20260901131137 79 356 0.0 0.0 0.00 0.00 0.00 88 1021.6
20260901130633 79 245 0.0 1.0 0.00 0.00 0.00 87 1021.7